Date,TemperatureHighF,TemperatureAvgF,TemperatureLowF,DewpointHighF,DewpointAvgF,DewpointLowF,HumidityHigh,HumidityAvg,HumidityLow,PressureMaxIn,PressureMinIn,WindSpeedMaxMPH,WindSpeedAvgMPH,GustSpeedMaxMPH,PrecipitationSumIn
2013-1-1,52.0,30.1,17.0,17.0,9.6,3.0,86,48,13,0.00,40.00,8,2,27,0.10
2013-1-2,55.0,35.5,25.0,25.0,16.2,3.0,82,48,26,0.00,40.00,2,0,15,0.06
2013-1-3,55.0,33.4,23.0,20.0,13.0,8.0,64,45,18,0.00,40.00,3,0,9,0.01
2013-1-4,57.0,35.0,24.0,30.0,19.5,12.0,96,57,20,0.00,40.00,3,0,12,0.00
2013-1-5,55.0,37.1,27.0,29.0,22.7,17.0,92,59,32,0.00,40.00,3,0,14,0.00
2013-1-6,34.0,30.2,25.0,32.0,27.7,22.0,100,91,70,0.00,40.00,4,0,10,0.04
2013-1-7,56.0,37.3,25.0,30.0,25.1,18.0,100,65,34,0.00,40.00,3,0,12,0.06
2013-1-8,66.0,41.3,32.0,34.0,25.1,16.0,79,55,27,0.00,40.00,2,0,9,0.03
2013-1-9,57.0,39.4,26.0,33.0,22.8,10.0,100,56,27,0.00,40.00,5,2,23,0.00
2013-1-10,32.0,23.5,17.0,31.0,19.9,12.0,100,88,53,0.00,40.00,3,0,11,0.00
2013-1-11,30.0,22.6,13.0,22.0,15.8,9.0,100,78,41,0.00,40.00,1,0,8,0.03
2013-1-12,39.0,20.0,5.0,16.0,6.2,-4.0,86,58,27,0.00,40.00,3,0,8,0.08
2013-1-13,39.0,20.0,5.0,8.0,-2.3,-10.0,67,40,21,0.00,40.00,6,1,22,0.03
2013-1-14,48.0,27.7,10.0,19.0,2.5,-9.0,53,35,17,0.00,40.00,7,2,22,0.06
2013-1-15,63.0,42.2,29.0,21.0,15.3,11.0,60,36,13,0.00,40.00,9,2,25,0.18
2013-1-16,66.0,46.1,33.0,14.0,2.8,-14.0,30,18,5,0.00,40.00,8,2,24,0.02
2013-1-17,70.0,40.5,30.0,18.0,5.8,-4.0,42,24,7,0.00,40.00,5,1,12,0.00
2013-1-18,64.0,38.2,28.0,19.0,7.9,-6.0,43,29,10,0.00,40.00,3,0,11,0.00
2013-1-19,65.0,39.7,27.0,19.0,8.6,-1.0,49,29,11,0.00,40.00,2,0,8,0.00
2013-1-20,67.0,37.9,28.0,17.0,6.4,-4.0,41,29,6,0.00,40.00,5,1,13,0.00
2013-1-21,70.0,42.0,30.0,20.0,12.3,3.0,49,31,9,0.00,40.00,5,0,11,0.00
2013-1-22,66.0,42.0,31.0,22.0,14.6,7.0,48,35,12,0.00,40.00,1,0,9,0.00
2013-1-23,59.0,44.2,34.0,33.0,15.5,6.0,92,36,12,0.00,40.00,3,0,14,0.00
2013-1-24,45.0,39.9,35.0,44.0,39.7,35.0,100,99,91,0.00,40.00,0,0,4,0.25
2013-1-25,52.0,41.2,36.0,50.0,40.1,36.0,100,96,65,0.00,40.00,0,0,6,0.23
2013-1-26,52.0,39.2,33.0,47.0,33.9,25.0,100,85,41,0.00,40.00,4,1,13,0.05
2013-1-27,42.0,30.9,23.0,33.0,23.9,14.0,100,78,38,0.00,40.00,3,1,11,0.08
2013-1-28,46.0,27.2,16.0,28.0,15.8,9.0,98,67,26,0.00,40.00,3,0,11,0.01
2013-1-29,59.0,38.3,28.0,28.0,22.8,20.0,90,56,29,0.00,40.00,5,1,24,0.00
2013-1-30,64.0,42.1,32.0,30.0,23.6,8.0,74,53,13,0.00,40.00,4,0,15,0.00
2013-1-31,63.0,45.5,30.0,28.0,21.1,16.0,61,41,18,0.00,40.00,2,0,9,0.00